Location: Wien
(48.2082°N, 16.3738°E)
Time: 19:47:32
(UTC+02:00)

DOVE 4 - Pass Details

Date: 31 March 2019
Orbit: 587 x 804 km, 97.7° (Epoch: 24 April)

Event Time Altitude Azimuth Distance (km) Brightness Sun altitude
Rises 04:26:32 0° 11° (N) 2,886 ? -21.0°
Reaches altitude 10° 04:28:45 10° 10° (N) 1,957 ? -20.7°
Maximum altitude 04:32:58 74° 286° (WNW) 620 ? -20.1°
Enters shadow 04:33:56 51° 217° (SW) 751 ? -19.9°
